Regional Weather Roundup
Issued by NWS

Home | Current Version | Previous Version | Graphics & Text | Print | Product List | Glossary Off
Versions: 1 2 3 4 5 6 7 8 9 10 11 12 13 14 15 16 17 18 19 20 21 22 23 24 25 26 27 28 29 30 31 32 33 34 35 36 37 38 39 40 41 42 43 44 45 46 47 48 49 50

000
ASUS43 KDMX 301306
RWRIA

WEATHER ROUNDUP FOR IOWA
NATIONAL WEATHER SERVICE DES MOINES IA
800 AM CDT SUN APR 30 2017

NOTE: "FAIR" INDICATES FEW OR NO CLOUDS BELOW 12,000 FEET WITH NO
SIGNIFICANT WEATHER AND/OR OBSTRUCTIONS TO VISIBILITY.

* - THESE STATIONS ARE NOT NWS STATIONS...THUS NOT UNDER NWS
QUALITY CONTROL.  THEY ALSO DO NOT REPORT WEATHER SUCH
AS PRECIPITATION OR FOG.

IAZ001>003-012>014-020>022-031>034-043>046-301400-
   NORTHWEST IOWA

CITY           SKY/WX    TMP DP  RH WIND       PRES   REMARKS
CARROLL *      CLOUDY    39  39 100 NE18G30   29.84R WCI  30
CHEROKEE *     LGT RAIN  38  38 100 NE10G20   29.90R WCI  31
DENISON *      CLOUDY    37  37 100 NE23G32   29.83R WCI  26
ORANGE CITY *  RAIN      39  37  93 NE9G16    29.91R WCI  33
SHELDON *      LGT RAIN  37  36  93 NE17G25   29.90S WCI  28
SIOUX CITY     LGT RAIN  40  38  93 NE20G29   29.87S FOG     WCI  30
SPENCER        CLOUDY    39  37  92 NE18G26   29.91F WCI  30
STORM LAKE *   MIX PCPN  37  36  93 NE25G31   29.88R WCI  26
$$

IAZ055>058-069>071-079>083-090>094-301400-
   SOUTHWEST IOWA

CITY           SKY/WX    TMP DP  RH WIND       PRES   REMARKS
ATLANTIC *     CLOUDY    39  39 100 NE16G25   29.78R WCI  30
AUDUBON *      CLOUDY    37  36  93 NE17G26   29.79R FOG     WCI  28
CLARINDA *     CLOUDY    41  41 100 NE16G29   29.76R FOG
COUNCIL BLFS * CLOUDY    39  39 100 NE23G30   29.75F WCI  29
CRESTON *      CLOUDY    39  39 100 NE28      29.74R FOG     WCI  28
HARLAN  *      CLOUDY    39  39 100 NE23G31   29.82R WCI  29
LAMONI         CLOUDY    42  41  96 NE21G26   29.70R FOG
RED OAK *      CLOUDY    41  39  93 NE22G29   29.73R
SHENANDOAH *   MIX PCPN  41  39  93 NE20G30   29.74R
$$

IAZ047>049-059>061-072>074-084-301400-
   CENTRAL IOWA

CITY           SKY/WX    TMP DP  RH WIND       PRES   REMARKS
AMES           CLOUDY    41  40  96 NE12G31   29.81S
ANKENY *       CLOUDY    41  39  93 NE17G24   29.81R
BOONE *        CLOUDY    39  39 100 NE18G25   29.81R WCI  30
CHARITON *     CLOUDY    41  41 100 NE15G21   29.75R
DES MOINES     DRIZZLE   42  40  92 NE13G28   29.80R FOG
GRINNELL*      CLOUDY    40  39  97 NE21G31   29.79F FOG     WCI  31
KNOXVILLE *    CLOUDY    41  41 100 NE14G26   29.75R
MARSHALLTOWN   CLOUDY    40  39  97 E23G33    29.81F WCI  30
NEWTON *       CLOUDY    41  39  93 NE23G30   29.77S
PELLA *        CLOUDY    42  41  97 NE9G20    29.77S
PERRY *        CLOUDY    40  39  96 NE13G20   29.81R WCI  33
$$

IAZ004>006-015-016-023>025-035-036-301400-
   NORTH CENTRAL IOWA

CITY           SKY/WX    TMP DP  RH WIND       PRES   REMARKS
ALGONA *       CLOUDY    39  39 100 NE15      29.90R FOG     WCI  31
CLARION *      CLOUDY    37  37 100 NE20G29   29.86S FOG     WCI  27
ESTHERVILLE    CLOUDY    38  37  97 NE22      29.91F WCI  27
FORT DODGE *   CLOUDY    37  34  87 NE15G21   29.87R WCI  28
MASON CITY     CLOUDY    39  32  76 NE15G24   29.90F WCI  31
FOREST CITY *  DRIZZLE   37  32  81 NE16G28   29.89F WCI  28
WEBSTER CITY * MIX PCPN  39  37  93 NE20      29.83R WCI  30
IOWA FALLS *   LGT RAIN  40  37  89 NE16      29.84F WCI  32
$$

IAZ007>011-017>019-026>030-037>042-050>054-066-301400-
   NORTHEAST IOWA

CITY           SKY/WX    TMP DP  RH WIND       PRES   REMARKS
CEDAR RAPIDS   CLOUDY    41  41 100 NE17      29.80R
CHARLES CITY * CLOUDY    41  34  75 NE16G23   29.89R
CLINTON *      CLOUDY    42  40  92 NE20G29   29.81S
DECORAH *      CLOUDY    41  36  81 E16G30    29.90S
DUBUQUE        CLOUDY    40  39  97 NE20G25   29.83F FOG     WCI  30
MONTICELLO *   CLOUDY    41  39  93 NE16G22   29.84S FOG
OELWEIN *      CLOUDY    39  39 100 E21       29.87R WCI  29
WATERLOO       CLOUDY    41  37  86 NE21      29.85S
$$

IAZ064-065-067-068-078-301400-
   EAST CENTRAL IOWA

CITY           SKY/WX    TMP DP  RH WIND       PRES   REMARKS
DAVENPORT      CLOUDY    42  40  92 NE17G25   29.82R
IOWA CITY      CLOUDY    44  41  89 NE16G23   29.82R
MT. PLEASANT * CLOUDY    43  43 100 NE16      29.75F FOG
MUSCATINE *    MIX PCPN  45  43  93 NE16G23   29.82R
QUAD CITIES    CLOUDY    44  41  89 VRB6G21   29.81R
$$

IAZ062-063-075>077-085>089-095>099-301400-
   SOUTHEAST IOWA

CITY           SKY/WX    TMP DP  RH WIND       PRES   REMARKS
BURLINGTON     LGT RAIN  45  45 100 NE15      29.75F VSB 1
FAIRFIELD *    CLOUDY    43  43 100 NE23      29.72F
FORT MADISON * FOG       45  45 100 NE13      29.74F VSB 1
KEOKUK *       CLOUDY    46  45  93 NE7G16    29.74S FOG
OSKALOOSA *    CLOUDY    42  41  97 NE22G29   29.74F
CENTERVILLE *  CLOUDY    43  43 100 NE8G18    29.74R
OTTUMWA        CLOUDY    44  43  96 E21G30    29.74F
WASHINGTON *   CLOUDY    43  43 100 E21       29.77F FOG
$$

ABBREVIATIONS USED IN REMARKS
   TC - TEMPERATURES IN CELSIUS
  WCI - WIND CHILL INDEX
   HX - HEAT INDEX
  VSB - VISIBILITY
$$





USA.gov is the U.S. government's official web portal to all federal, state and local government web resources and services.